"Sample Date","Sample Time","Sensor Name","Sample Value","Units","Flow Rate","Sample Interval","Sample Volume","Laser Status","Number Channels","Micron Size 0","Counts/Channel 0","Micron Size 1","Counts/Channel 1","Micron Size 2","Counts/Channel 2","Micron Size 3","Counts/Channel 3","Micron Size 4","Counts/Channel 4","Micron Size 5","Counts/Channel 5","Micron Size 6","Counts/Channel 6","Micron Size 7","Counts/Channel 7","Micron Size 8","Counts/Channel 8","Micron Size 9","Counts/Channel 9","Micron Size 10","Counts/Channel 10","Micron Size 11","Counts/Channel 11","Micron Size 12","Counts/Channel 12","Micron Size 13","Counts/Channel 13","Micron Size 14","Counts/Channel 14","Micron Size 15","Counts/Channel 15","Micron Size 16","Counts/Channel 16","Micron Size 17","Counts/Channel 17","Micron Size 18","Counts/Channel 18","Micron Size 19","Counts/Channel 19","Micron Size 20","Counts/Channel 20","Micron Size 21","Counts/Channel 21","Micron Size 22","Counts/Channel 22","Micron Size 23","Counts/Channel 23","Micron Size 24","Counts/Channel 24","Micron Size 25","Counts/Channel 25","Micron Size 26","Counts/Channel 26","Micron Size 27","Counts/Channel 27","Micron Size 28","Counts/Channel 28","Micron Size 29","Counts/Channel 29","Micron Size 30","Counts/Channel 30","Micron Size 31","Counts/Channel 31"
"07/09/06","04:00:01","AMMA06",31024.000,"cc",28339.320,6.00,2833.932,1,6,0.100,16314.000,0.200,12715.000,0.300,1641.000,0.500,242.000,1.000,112.000,5.000,0
"07/09/06","04:00:07","AMMA06",31111.000,"cc",28341.465,6.00,2834.147,1,6,0.100,16456.000,0.200,12646.000,0.300,1654.000,0.500,234.000,1.000,121.000,5.000,0
"07/09/06","04:00:13","AMMA06",31146.000,"cc",28349.145,6.00,2834.915,1,6,0.100,16447.000,0.200,12773.000,0.300,1600.000,0.500,225.000,1.000,101.000,5.000,0
"07/09/06","04:00:19","AMMA06",30655.000,"cc",28320.729,6.00,2832.073,1,6,0.100,16121.000,0.200,12575.000,0.300,1660.000,0.500,184.000,1.000,115.000,5.000,0
"07/09/06","04:00:25","AMMA06",31020.000,"cc",28300.752,6.00,2830.075,1,6,0.100,16453.000,0.200,12654.000,0.300,1628.000,0.500,183.000,1.000,102.000,5.000,0
"07/09/06","04:00:31","AMMA06",31433.000,"cc",28307.916,6.00,2830.792,1,6,0.100,16500.000,0.200,12894.000,0.300,1698.000,0.500,218.000,1.000,123.000,5.000,0
"07/09/06","04:00:37","AMMA06",31125.000,"cc",28292.527,6.00,2829.253,1,6,0.100,16324.000,0.200,12886.000,0.300,1591.000,0.500,221.000,1.000,103.000,5.000,0
"07/09/06","04:00:43","AMMA06",30905.000,"cc",28357.861,6.00,2835.786,1,6,0.100,16285.000,0.200,12645.000,0.300,1632.000,0.500,217.000,1.000,126.000,5.000,0
"07/09/06","04:00:49","AMMA06",31226.000,"cc",28295.316,6.00,2829.532,1,6,0.100,16359.000,0.200,12845.000,0.300,1660.000,0.500,239.000,1.000,123.000,5.000,0
"07/09/06","04:00:55","AMMA06",31293.000,"cc",28282.566,6.00,2828.257,1,6,0.100,16346.000,0.200,12877.000,0.300,1675.000,0.500,244.000,1.000,151.000,5.000,0
"07/09/06","04:01:01","AMMA06",32699.000,"cc",28343.621,6.00,2834.362,1,6,0.100,17067.000,0.200,13105.000,0.300,1933.000,0.500,396.000,1.000,198.000,5.000,0
"07/09/06","04:01:07","AMMA06",32908.000,"cc",28351.842,6.00,2835.184,1,6,0.100,17097.000,0.200,13074.000,0.300,2009.000,0.500,511.000,1.000,217.000,5.000,0
"07/09/06","04:01:13","AMMA06",33006.000,"cc",28332.147,6.00,2833.215,1,6,0.100,17211.000,0.200,13142.000,0.300,2011.000,0.500,440.000,1.000,202.000,5.000,0
"07/09/06","04:01:19","AMMA06",31615.000,"cc",28321.617,6.00,2832.162,1,6,0.100,16649.000,0.200,12700.000,0.300,1802.000,0.500,289.000,1.000,175.000,5.000,0
"07/09/06","04:01:25","AMMA06",31104.000,"cc",28335.711,6.00,2833.571,1,6,0.100,16316.000,0.200,12751.000,0.300,1652.000,0.500,270.000,1.000,115.000,5.000,0
"07/09/06","04:01:31","AMMA06",32245.000,"cc",28314.527,6.00,2831.453,1,6,0.100,16939.000,0.200,12911.000,0.300,1895.000,0.500,341.000,1.000,159.000,5.000,0
"07/09/06","04:01:37","AMMA06",31502.000,"cc",28301.522,6.00,2830.152,1,6,0.100,16507.000,0.200,12834.000,0.300,1753.000,0.500,266.000,1.000,142.000,5.000,0
"07/09/06","04:01:43","AMMA06",30894.000,"cc",28292.703,6.00,2829.271,1,6,0.100,16160.000,0.200,12740.000,0.300,1648.000,0.500,218.000,1.000,128.000,5.000,0
"07/09/06","04:01:49","AMMA06",31064.000,"cc",28349.463,6.00,2834.947,1,6,0.100,16200.000,0.200,12848.000,0.300,1663.000,0.500,233.000,1.000,120.000,5.000,0
"07/09/06","04:01:55","AMMA06",31309.000,"cc",28333.510,6.00,2833.351,1,6,0.100,16343.000,0.200,13008.000,0.300,1618.000,0.500,234.000,1.000,106.000,5.000,0
"07/09/06","04:02:01","AMMA06",31286.000,"cc",28305.418,6.00,2830.542,1,6,0.100,16413.000,0.200,12796.000,0.300,1690.000,0.500,245.000,1.000,142.000,5.000,0
"07/09/06","04:02:07","AMMA06",31173.000,"cc",28301.539,6.00,2830.154,1,6,0.100,16087.000,0.200,12924.000,0.300,1782.000,0.500,234.000,1.000,146.000,5.000,0
"07/09/06","04:02:13","AMMA06",31180.000,"cc",28315.301,6.00,2831.530,1,6,0.100,16355.000,0.200,12768.000,0.300,1723.000,0.500,203.000,1.000,131.000,5.000,0
"07/09/06","04:02:19","AMMA06",31292.000,"cc",28303.057,6.00,2830.306,1,6,0.100,16123.000,0.200,13103.000,0.300,1735.000,0.500,218.000,1.000,113.000,5.000,0
"07/09/06","04:02:25","AMMA06",32038.000,"cc",28304.002,6.00,2830.400,1,6,0.100,16638.000,0.200,13073.000,0.300,1886.000,0.500,289.000,1.000,152.000,5.000,0
"07/09/06","04:02:31","AMMA06",31604.000,"cc",28337.584,6.00,2833.759,1,6,0.100,16263.000,0.200,13135.000,0.300,1822.000,0.500,251.000,1.000,133.000,5.000,0
"07/09/06","04:02:37","AMMA06",31337.000,"cc",28294.770,6.00,2829.477,1,6,0.100,16154.000,0.200,13067.000,0.300,1750.000,0.500,227.000,1.000,139.000,5.000,0
"07/09/06","04:02:43","AMMA06",31297.000,"cc",28347.811,6.00,2834.781,1,6,0.100,16368.000,0.200,12751.000,0.300,1812.000,0.500,234.000,1.000,132.000,5.000,0
"07/09/06","04:02:49","AMMA06",31140.000,"cc",28349.897,6.00,2834.990,1,6,0.100,16241.000,0.200,12910.000,0.300,1674.000,0.500,195.000,1.000,120.000,5.000,0
"07/09/06","04:02:55","AMMA06",31175.000,"cc",28329.723,6.00,2832.972,1,6,0.100,16339.000,0.200,12759.000,0.300,1737.000,0.500,216.000,1.000,124.000,5.000,0
"07/09/06","04:03:01","AMMA06",31110.000,"cc",28272.109,6.00,2827.211,1,6,0.100,16194.000,0.200,12963.000,0.300,1645.000,0.500,191.000,1.000,117.000,5.000,0
"07/09/06","04:03:07","AMMA06",31177.000,"cc",28270.201,6.00,2827.020,1,6,0.100,16234.000,0.200,12919.000,0.300,1713.000,0.500,203.000,1.000,108.000,5.000,0
"07/09/06","04:03:13","AMMA06",31138.000,"cc",28353.072,6.00,2835.307,1,6,0.100,16293.000,0.200,12888.000,0.300,1606.000,0.500,227.000,1.000,124.000,5.000,0
"07/09/06","04:03:19","AMMA06",31198.000,"cc",28353.123,6.00,2835.313,1,6,0.100,16222.000,0.200,12943.000,0.300,1717.000,0.500,199.000,1.000,117.000,5.000,0
"07/09/06","04:03:25","AMMA06",31005.000,"cc",28289.008,6.00,2828.901,1,6,0.100,16130.000,0.200,12874.000,0.300,1654.000,0.500,221.000,1.000,126.000,5.000,0
"07/09/06","04:03:31","AMMA06",31123.000,"cc",28325.356,6.00,2832.536,1,6,0.100,16342.000,0.200,12747.000,0.300,1694.000,0.500,200.000,1.000,140.000,5.000,0
"07/09/06","04:03:37","AMMA06",31185.000,"cc",28336.094,6.00,2833.610,1,6,0.100,16277.000,0.200,12881.000,0.300,1681.000,0.500,223.000,1.000,123.000,5.000,0
"07/09/06","04:03:43","AMMA06",31338.000,"cc",28315.098,6.00,2831.510,1,6,0.100,16281.000,0.200,12911.000,0.300,1773.000,0.500,250.000,1.000,123.000,5.000,0
"07/09/06","04:03:49","AMMA06",30962.000,"cc",28286.482,6.00,2828.648,1,6,0.100,16237.000,0.200,12699.000,0.300,1669.000,0.500,215.000,1.000,142.000,5.000,0
"07/09/06","04:03:55","AMMA06",31955.000,"cc",28286.775,6.00,2828.678,1,6,0.100,16876.000,0.200,12859.000,0.300,1808.000,0.500,265.000,1.000,147.000,5.000,0
"07/09/06","04:04:01","AMMA06",31345.000,"cc",28354.938,6.00,2835.494,1,6,0.100,16484.000,0.200,12786.000,0.300,1737.000,0.500,213.000,1.000,125.000,5.000,0
"07/09/06","04:04:07","AMMA06",31860.000,"cc",28276.514,6.00,2827.652,1,6,0.100,16641.000,0.200,12969.000,0.300,1813.000,0.500,296.000,1.000,141.000,5.000,0
"07/09/06","04:04:13","AMMA06",32693.000,"cc",28347.684,6.00,2834.769,1,6,0.100,17054.000,0.200,13120.000,0.300,1953.000,0.500,368.000,1.000,198.000,5.000,0
"07/09/06","04:04:19","AMMA06",31697.000,"cc",28315.053,6.00,2831.505,1,6,0.100,16437.000,0.200,12932.000,0.300,1857.000,0.500,295.000,1.000,176.000,5.000,0
"07/09/06","04:04:25","AMMA06",31725.000,"cc",28336.910,6.00,2833.691,1,6,0.100,16721.000,0.200,12844.000,0.300,1721.000,0.500,289.000,1.000,150.000,5.000,0
"07/09/06","04:04:31","AMMA06",32356.000,"cc",28322.422,6.00,2832.242,1,6,0.100,16902.000,0.200,13043.000,0.300,1869.000,0.500,370.000,1.000,172.000,5.000,0
"07/09/06","04:04:37","AMMA06",33441.000,"cc",28298.590,6.00,2829.859,1,6,0.100,17267.000,0.200,13301.000,0.300,2128.000,0.500,523.000,1.000,222.000,5.000,0
"07/09/06","04:04:43","AMMA06",32383.000,"cc",28284.746,6.00,2828.475,1,6,0.100,16954.000,0.200,12907.000,0.300,1917.000,0.500,414.000,1.000,191.000,5.000,0
"07/09/06","04:04:49","AMMA06",32430.000,"cc",28325.328,6.00,2832.533,1,6,0.100,16943.000,0.200,12964.000,0.300,1943.000,0.500,394.000,1.000,186.000,5.000,0
"07/09/06","04:04:55","AMMA06",32573.000,"cc",28340.039,6.00,2834.004,1,6,0.100,17043.000,0.200,13046.000,0.300,1900.000,0.500,409.000,1.000,175.000,5.000,0
"07/09/06","04:05:01","AMMA06",31773.000,"cc",28324.037,6.00,2832.404,1,6,0.100,16729.000,0.200,12830.000,0.300,1743.000,0.500,323.000,1.000,148.000,5.000,0
"07/09/06","04:05:07","AMMA06",32789.000,"cc",28304.002,6.00,2830.400,1,6,0.100,17077.000,0.200,12827.000,0.300,2150.000,0.500,490.000,1.000,245.000,5.000,0
"07/09/06","04:05:13","AMMA06",33128.000,"cc",28303.475,6.00,2830.348,1,6,0.100,17088.000,0.200,13189.000,0.300,2067.000,0.500,545.000,1.000,239.000,5.000,0
"07/09/06","04:05:19","AMMA06",31323.000,"cc",28338.783,6.00,2833.878,1,6,0.100,16560.000,0.200,12523.000,0.300,1801.000,0.500,289.000,1.000,150.000,5.000,0
"07/09/06","04:05:25","AMMA06",30826.000,"cc",28278.027,6.00,2827.803,1,6,0.100,16320.000,0.200,12377.000,0.300,1709.000,0.500,264.000,1.000,156.000,5.000,0
"07/09/06","04:05:31","AMMA06",31205.000,"cc",28290.945,6.00,2829.095,1,6,0.100,16305.000,0.200,12801.000,0.300,1689.000,0.500,268.000,1.000,142.000,5.000,0
"07/09/06","04:05:37","AMMA06",31162.000,"cc",28305.918,6.00,2830.592,1,6,0.100,16402.000,0.200,12770.000,0.300,1629.000,0.500,217.000,1.000,144.000,5.000,0
"07/09/06","04:05:43","AMMA06",31290.000,"cc",28277.020,6.00,2827.702,1,6,0.100,16538.000,0.200,12607.000,0.300,1707.000,0.500,279.000,1.000,159.000,5.000,0
"07/09/06","04:05:49","AMMA06",31485.000,"cc",28345.748,6.00,2834.575,1,6,0.100,16653.000,0.200,12740.000,0.300,1683.000,0.500,267.000,1.000,142.000,5.000,0
"07/09/06","04:05:55","AMMA06",30996.000,"cc",28396.238,6.00,2839.624,1,6,0.100,16332.000,0.200,12619.000,0.300,1662.000,0.500,245.000,1.000,138.000,5.000,0
"07/09/06","04:06:01","AMMA06",31046.000,"cc",28338.445,6.00,2833.845,1,6,0.100,16175.000,0.200,12719.000,0.300,1735.000,0.500,269.000,1.000,148.000,5.000,0
"07/09/06","04:06:07","AMMA06",30922.000,"cc",28272.145,6.00,2827.215,1,6,0.100,16256.000,0.200,12537.000,0.300,1703.000,0.500,268.000,1.000,158.000,5.000,0
"07/09/06","04:06:13","AMMA06",31174.000,"cc",28371.334,6.00,2837.134,1,6,0.100,16375.000,0.200,12776.000,0.300,1667.000,0.500,236.000,1.000,120.000,5.000,0
"07/09/06","04:06:19","AMMA06",31668.000,"cc",28358.012,6.00,2835.801,1,6,0.100,16676.000,0.200,12855.000,0.300,1686.000,0.500,297.000,1.000,154.000,5.000,0
"07/09/06","04:06:25","AMMA06",31240.000,"cc",28312.020,6.00,2831.202,1,6,0.100,16302.000,0.200,12753.000,0.300,1811.000,0.500,248.000,1.000,126.000,5.000,0
"07/09/06","04:06:31","AMMA06",31326.000,"cc",28245.504,6.00,2824.551,1,6,0.100,16362.000,0.200,12840.000,0.300,1742.000,0.500,255.000,1.000,127.000,5.000,0
"07/09/06","04:06:37","AMMA06",31332.000,"cc",28293.650,6.00,2829.365,1,6,0.100,16345.000,0.200,12783.000,0.300,1724.000,0.500,293.000,1.000,187.000,5.000,0
"07/09/06","04:06:43","AMMA06",31289.000,"cc",28359.068,6.00,2835.907,1,6,0.100,16571.000,0.200,12665.000,0.300,1680.000,0.500,234.000,1.000,139.000,5.000,0
"07/09/06","04:06:49","AMMA06",31033.000,"cc",28327.117,6.00,2832.712,1,6,0.100,16270.000,0.200,12758.000,0.300,1625.000,0.500,215.000,1.000,165.000,5.000,0
"07/09/06","04:06:55","AMMA06",31147.000,"cc",28335.693,6.00,2833.570,1,6,0.100,16433.000,0.200,12666.000,0.300,1636.000,0.500,258.000,1.000,154.000,5.000,0
"07/09/06","04:07:01","AMMA06",30985.000,"cc",28280.684,6.00,2828.069,1,6,0.100,16184.000,0.200,12719.000,0.300,1694.000,0.500,252.000,1.000,136.000,5.000,0
"07/09/06","04:07:07","AMMA06",31410.000,"cc",28306.219,6.00,2830.622,1,6,0.100,16666.000,0.200,12428.000,0.300,1815.000,0.500,315.000,1.000,186.000,5.000,0
"07/09/06","04:07:13","AMMA06",31441.000,"cc",28305.875,6.00,2830.588,1,6,0.100,16524.000,0.200,12725.000,0.300,1754.000,0.500,283.000,1.000,155.000,5.000,0
"07/09/06","04:07:19","AMMA06",31375.000,"cc",28320.701,6.00,2832.070,1,6,0.100,16576.000,0.200,12652.000,0.300,1714.000,0.500,281.000,1.000,152.000,5.000,0
"07/09/06","04:07:25","AMMA06",31543.000,"cc",28303.475,6.00,2830.348,1,6,0.100,16832.000,0.200,12621.000,0.300,1697.000,0.500,245.000,1.000,148.000,5.000,0
"07/09/06","04:07:31","AMMA06",30988.000,"cc",28300.365,6.00,2830.037,1,6,0.100,16461.000,0.200,12341.000,0.300,1809.000,0.500,234.000,1.000,143.000,5.000,0
"07/09/06","04:07:37","AMMA06",31565.000,"cc",28335.332,6.00,2833.533,1,6,0.100,16694.000,0.200,12695.000,0.300,1748.000,0.500,261.000,1.000,167.000,5.000,0
"07/09/06","04:07:43","AMMA06",31495.000,"cc",28291.109,6.00,2829.111,1,6,0.100,16708.000,0.200,12796.000,0.300,1605.000,0.500,248.000,1.000,138.000,5.000,0
"07/09/06","04:07:49","AMMA06",30763.000,"cc",28332.201,6.00,2833.220,1,6,0.100,16322.000,0.200,12418.000,0.300,1670.000,0.500,234.000,1.000,119.000,5.000,0
"07/09/06","04:07:55","AMMA06",31150.000,"cc",28296.111,6.00,2829.611,1,6,0.100,16592.000,0.200,12519.000,0.300,1644.000,0.500,248.000,1.000,147.000,5.000,0
"07/09/06","04:08:01","AMMA06",31014.000,"cc",28306.734,6.00,2830.674,1,6,0.100,16434.000,0.200,12632.000,0.300,1583.000,0.500,238.000,1.000,127.000,5.000,0
"07/09/06","04:08:07","AMMA06",30953.000,"cc",28337.891,6.00,2833.789,1,6,0.100,16356.000,0.200,12522.000,0.300,1714.000,0.500,224.000,1.000,137.000,5.000,0
"07/09/06","04:08:13","AMMA06",30798.000,"cc",28348.334,6.00,2834.834,1,6,0.100,16272.000,0.200,12500.000,0.300,1653.000,0.500,241.000,1.000,132.000,5.000,0
"07/09/06","04:08:19","AMMA06",31188.000,"cc",28301.402,6.00,2830.140,1,6,0.100,16496.000,0.200,12599.000,0.300,1700.000,0.500,258.000,1.000,135.000,5.000,0
"07/09/06","04:08:25","AMMA06",31742.000,"cc",28355.738,6.00,2835.574,1,6,0.100,16611.000,0.200,13014.000,0.300,1702.000,0.500,278.000,1.000,137.000,5.000,0
"07/09/06","04:08:31","AMMA06",33236.000,"cc",28271.861,6.00,2827.186,1,6,0.100,17274.000,0.200,13107.000,0.300,2152.000,0.500,474.000,1.000,229.000,5.000,0
"07/09/06","04:08:37","AMMA06",32622.000,"cc",28311.414,6.00,2831.142,1,6,0.100,17033.000,0.200,13103.000,0.300,1880.000,0.500,412.000,1.000,194.000,5.000,0
"07/09/06","04:08:43","AMMA06",31787.000,"cc",28326.768,6.00,2832.677,1,6,0.100,16756.000,0.200,12771.000,0.300,1789.000,0.500,317.000,1.000,154.000,5.000,0
"07/09/06","04:08:49","AMMA06",31490.000,"cc",28321.979,6.00,2832.198,1,6,0.100,16743.000,0.200,12602.000,0.300,1754.000,0.500,245.000,1.000,146.000,5.000,0
"07/09/06","04:08:55","AMMA06",31433.000,"cc",28353.844,6.00,2835.385,1,6,0.100,16512.000,0.200,12784.000,0.300,1703.000,0.500,285.000,1.000,149.000,5.000,0
"07/09/06","04:09:01","AMMA06",31295.000,"cc",28339.877,6.00,2833.988,1,6,0.100,16580.000,0.200,12687.000,0.300,1678.000,0.500,231.000,1.000,119.000,5.000,0
"07/09/06","04:09:07","AMMA06",31715.000,"cc",28323.373,6.00,2832.337,1,6,0.100,16683.000,0.200,12907.000,0.300,1708.000,0.500,283.000,1.000,134.000,5.000,0
"07/09/06","04:09:13","AMMA06",31632.000,"cc",28296.572,6.00,2829.658,1,6,0.100,16683.000,0.200,12719.000,0.300,1746.000,0.500,293.000,1.000,191.000,5.000,0
"07/09/06","04:09:19","AMMA06",32172.000,"cc",28342.992,6.00,2834.299,1,6,0.100,16847.000,0.200,12951.000,0.300,1808.000,0.500,361.000,1.000,205.000,5.000,0
"07/09/06","04:09:25","AMMA06",31793.000,"cc",28333.080,6.00,2833.308,1,6,0.100,16657.000,0.200,12847.000,0.300,1802.000,0.500,313.000,1.000,174.000,5.000,0
"07/09/06","04:09:31","AMMA06",31757.000,"cc",28317.656,6.00,2831.766,1,6,0.100,16739.000,0.200,12807.000,0.300,1808.000,0.500,265.000,1.000,138.000,5.000,0
"07/09/06","04:09:37","AMMA06",32597.000,"cc",28267.391,6.00,2826.739,1,6,0.100,16818.000,0.200,13179.000,0.300,1979.000,0.500,389.000,1.000,232.000,5.000,0
"07/09/06","04:09:43","AMMA06",33957.000,"cc",28307.359,6.00,2830.736,1,6,0.100,17515.000,0.200,13362.000,0.300,2271.000,0.500,549.000,1.000,260.000,5.000,0
"07/09/06","04:09:49","AMMA06",32474.000,"cc",28310.805,6.00,2831.081,1,6,0.100,16855.000,0.200,13147.000,0.300,1973.000,0.500,331.000,1.000,168.000,5.000,0
"07/09/06","04:09:55","AMMA06",32360.000,"cc",28277.928,6.00,2827.793,1,6,0.100,16920.000,0.200,13016.000,0.300,1845.000,0.500,372.000,1.000,207.000,5.000,0
"07/09/06","04:10:01","AMMA06",31950.000,"cc",28343.621,6.00,2834.362,1,6,0.100,16751.000,0.200,12898.000,0.300,1830.000,0.500,309.000,1.000,162.000,5.000,0
"07/09/06","04:10:07","AMMA06",31807.000,"cc",28306.738,6.00,2830.674,1,6,0.100,16564.000,0.200,12991.000,0.300,1841.000,0.500,276.000,1.000,135.000,5.000,0
"07/09/06","04:10:13","AMMA06",32346.000,"cc",28318.395,6.00,2831.840,1,6,0.100,16570.000,0.200,13240.000,0.300,1924.000,0.500,396.000,1.000,216.000,5.000,0
"07/09/06","04:10:19","AMMA06",32034.000,"cc",28329.111,6.00,2832.911,1,6,0.100,16711.000,0.200,12984.000,0.300,1849.000,0.500,337.000,1.000,153.000,5.000,0
"07/09/06","04:10:25","AMMA06",31652.000,"cc",28269.100,6.00,2826.910,1,6,0.100,16452.000,0.200,12965.000,0.300,1811.000,0.500,262.000,1.000,162.000,5.000,0
"07/09/06","04:10:31","AMMA06",32195.000,"cc",28336.666,6.00,2833.667,1,6,0.100,16819.000,0.200,12935.000,0.300,1927.000,0.500,325.000,1.000,189.000,5.000,0
"07/09/06","04:10:37","AMMA06",32560.000,"cc",28332.938,6.00,2833.294,1,6,0.100,16985.000,0.200,13054.000,0.300,2003.000,0.500,343.000,1.000,175.000,5.000,0
"07/09/06","04:10:43","AMMA06",33227.000,"cc",28319.043,6.00,2831.905,1,6,0.100,17170.000,0.200,13223.000,0.300,2153.000,0.500,454.000,1.000,227.000,5.000,0
"07/09/06","04:10:49","AMMA06",32858.000,"cc",28348.299,6.00,2834.830,1,6,0.100,17058.000,0.200,13188.000,0.300,2010.000,0.500,381.000,1.000,221.000,5.000,0
"07/09/06","04:10:55","AMMA06",33302.000,"cc",28315.936,6.00,2831.594,1,6,0.100,17376.000,0.200,13179.000,0.300,2109.000,0.500,449.000,1.000,189.000,5.000,0
"07/09/06","04:11:01","AMMA06",32972.000,"cc",28316.100,6.00,2831.610,1,6,0.100,16922.000,0.200,13317.000,0.300,2122.000,0.500,410.000,1.000,201.000,5.000,0
"07/09/06","04:11:07","AMMA06",34196.000,"cc",28358.930,6.00,2835.893,1,6,0.100,17400.000,0.200,13650.000,0.300,2307.000,0.500,561.000,1.000,278.000,5.000,0
"07/09/06","04:11:13","AMMA06",32587.000,"cc",28269.920,6.00,2826.992,1,6,0.100,16839.000,0.200,13159.000,0.300,1990.000,0.500,392.000,1.000,207.000,5.000,0
"07/09/06","04:11:19","AMMA06",32705.000,"cc",28308.738,6.00,2830.874,1,6,0.100,16886.000,0.200,13065.000,0.300,2083.000,0.500,439.000,1.000,232.000,5.000,0
"07/09/06","04:11:25","AMMA06",32208.000,"cc",28276.217,6.00,2827.622,1,6,0.100,16808.000,0.200,13132.000,0.300,1808.000,0.500,311.000,1.000,149.000,5.000,0
"07/09/06","04:11:31","AMMA06",33455.000,"cc",28339.697,6.00,2833.970,1,6,0.100,17321.000,0.200,13327.000,0.300,2087.000,0.500,503.000,1.000,217.000,5.000,0
"07/09/06","04:11:37","AMMA06",33219.000,"cc",28365.836,6.00,2836.584,1,6,0.100,16996.000,0.200,13450.000,0.300,2099.000,0.500,486.000,1.000,188.000,5.000,0
"07/09/06","04:11:43","AMMA06",32602.000,"cc",28284.160,6.00,2828.416,1,6,0.100,16888.000,0.200,13198.000,0.300,1967.000,0.500,377.000,1.000,172.000,5.000,0
"07/09/06","04:11:49","AMMA06",32057.000,"cc",28305.555,6.00,2830.556,1,6,0.100,16758.000,0.200,12868.000,0.300,1923.000,0.500,353.000,1.000,155.000,5.000,0
"07/09/06","04:11:55","AMMA06",32004.000,"cc",28322.389,6.00,2832.239,1,6,0.100,16899.000,0.200,12762.000,0.300,1866.000,0.500,323.000,1.000,154.000,5.000,0
"07/09/06","04:12:01","AMMA06",31845.000,"cc",28326.777,6.00,2832.678,1,6,0.100,16706.000,0.200,12847.000,0.300,1788.000,0.500,334.000,1.000,170.000,5.000,0
"07/09/06","04:12:07","AMMA06",31985.000,"cc",28328.070,6.00,2832.807,1,6,0.100,16786.000,0.200,13020.000,0.300,1730.000,0.500,281.000,1.000,168.000,5.000,0
"07/09/06","04:12:13","AMMA06",31410.000,"cc",28353.940,6.00,2835.394,1,6,0.100,16481.000,0.200,12602.000,0.300,1843.000,0.500,303.000,1.000,181.000,5.000,0
"07/09/06","04:12:19","AMMA06",32175.000,"cc",28266.514,6.00,2826.652,1,6,0.100,16739.000,0.200,12952.000,0.300,1918.000,0.500,399.000,1.000,167.000,5.000,0
"07/09/06","04:12:25","AMMA06",33940.000,"cc",28288.775,6.00,2828.878,1,6,0.100,17697.000,0.200,13241.000,0.300,2219.000,0.500,531.000,1.000,252.000,5.000,0
"07/09/06","04:12:31","AMMA06",34853.000,"cc",28325.828,6.00,2832.583,1,6,0.100,17984.000,0.200,13465.000,0.300,2407.000,0.500,687.000,1.000,310.000,5.000,0
"07/09/06","04:12:37","AMMA06",33179.000,"cc",28327.576,6.00,2832.758,1,6,0.100,17402.000,0.200,13070.000,0.300,2033.000,0.500,466.000,1.000,208.000,5.000,0
"07/09/06","04:12:43","AMMA06",32893.000,"cc",28279.590,6.00,2827.959,1,6,0.100,17213.000,0.200,13120.000,0.300,1993.000,0.500,373.000,1.000,194.000,5.000,0
"07/09/06","04:12:49","AMMA06",33139.000,"cc",28327.754,6.00,2832.776,1,6,0.100,17437.000,0.200,13038.000,0.300,2017.000,0.500,459.000,1.000,188.000,5.000,0
"07/09/06","04:12:55","AMMA06",33756.000,"cc",28298.910,6.00,2829.891,1,6,0.100,17547.000,0.200,13348.000,0.300,2151.000,0.500,501.000,1.000,209.000,5.000,0
"07/09/06","04:13:01","AMMA06",45367.000,"cc",28381.914,6.00,2838.192,1,6,0.100,26140.000,0.200,15526.000,0.300,2719.000,0.500,680.000,1.000,302.000,5.000,0
"07/09/06","04:13:07","AMMA06",38693.000,"cc",28324.861,6.00,2832.486,1,6,0.100,20544.000,0.200,14064.000,0.300,2834.000,0.500,858.000,1.000,393.000,5.000,0
"07/09/06","04:13:13","AMMA06",36185.000,"cc",28311.549,6.00,2831.155,1,6,0.100,18988.000,0.200,13693.000,0.300,2468.000,0.500,707.000,1.000,329.000,5.000,0
"07/09/06","04:13:19","AMMA06",34247.000,"cc",28327.373,6.00,2832.738,1,6,0.100,18412.000,0.200,13211.000,0.300,1990.000,0.500,438.000,1.000,196.000,5.000,0
"07/09/06","04:13:25","AMMA06",34222.000,"cc",28295.592,6.00,2829.559,1,6,0.100,18296.000,0.200,13074.000,0.300,2150.000,0.500,490.000,1.000,212.000,5.000,0
"07/09/06","04:13:31","AMMA06",33360.000,"cc",28282.967,6.00,2828.297,1,6,0.100,17662.000,0.200,12907.000,0.300,2075.000,0.500,489.000,1.000,227.000,5.000,0
"07/09/06","04:13:37","AMMA06",33862.000,"cc",28359.941,6.00,2835.994,1,6,0.100,17945.000,0.200,13015.000,0.300,2188.000,0.500,449.000,1.000,265.000,5.000,0
"07/09/06","04:13:43","AMMA06",32754.000,"cc",28289.844,6.00,2828.985,1,6,0.100,17124.000,0.200,12906.000,0.300,2072.000,0.500,445.000,1.000,207.000,5.000,0
"07/09/06","04:13:49","AMMA06",32499.000,"cc",28317.904,6.00,2831.791,1,6,0.100,17320.000,0.200,12826.000,0.300,1854.000,0.500,330.000,1.000,168.000,5.000,1.000
"07/09/06","04:13:55","AMMA06",32263.000,"cc",28321.270,6.00,2832.127,1,6,0.100,17058.000,0.200,12873.000,0.300,1813.000,0.500,341.000,1.000,178.000,5.000,0
"07/09/06","04:14:01","AMMA06",42897.000,"cc",28352.211,6.00,2835.221,1,6,0.100,23091.000,0.200,15086.000,0.300,3149.000,0.500,1107.000,1.000,464.000,5.000,0
"07/09/06","04:14:07","AMMA06",34867.000,"cc",28333.330,6.00,2833.333,1,6,0.100,18678.000,0.200,13477.000,0.300,2028.000,0.500,443.000,1.000,241.000,5.000,0
"07/09/06","04:14:13","AMMA06",37091.000,"cc",28311.338,6.00,2831.134,1,6,0.100,20393.000,0.200,13653.000,0.300,2256.000,0.500,527.000,1.000,262.000,5.000,0